Location: Daum (historical)
(33.8975°N, 117.8420°W)
Time: 13:59:15
(UTC+00:00)

Daily predictions for brighter satellites

Satellite Brightness Start Highest point End
(mag) Time Altitude Azimuth Time Altitude Azimuth Time Altitude Azimuth
IDEFIX/ARIANE 42P 4.3 12:00:17 10° NNW 12:02:58 14° WNW 12:03:12 14° WNW
Centaur D AC-29 2.2 12:05:28 19° SSW 12:05:28 19° SSW 12:07:41 10° SE
Cosmos 923 Rocket 4.4 12:02:11 10° NW 12:06:59 38° W 12:11:46 10° SSW
Cosmos 2369 Rocket 3.0 12:04:09 10° S 12:09:32 52° ESE 12:14:56 10° NNE
Cosmos 1943 Rocket 2.1 12:05:17 15° SSW 12:10:04 78° WNW 12:15:45 10° NNE
METEOR-M 4.5 12:05:43 10° NNE 12:11:02 68° ESE 12:16:21 10° S
Cosmos 1378 Rocket 3.9 12:09:17 10° S 12:13:40 67° E 12:18:04 10° NNE
Cosmos 1727 Rocket 4.0 12:08:39 10° S 12:14:50 88° W 12:21:06 10° N
Lacrosse 5 rocket 3.7 12:21:02 11° SSW 12:21:02 11° SSW 12:21:15 10° SSW
GP-B 3.3 12:15:02 10° N 12:19:28 75° E 12:23:53 10° S
Cosmos 2298 Rocket 4.5 12:14:17 10° S 12:19:31 65° ESE 12:24:46 10° NNE
Cosmos 1733 3.0 12:16:12 10° N 12:19:59 79° W 12:23:43 10° S
ARIANE 5 R/B 4.3 12:19:30 10° NNW 12:22:15 14° WNW 12:23:42 13° W
Cosmos 1356 Rocket 3.5 12:18:27 10° NNW 12:22:26 52° W 12:26:27 10° S
Cosmos 1674 Rocket 3.4 12:18:56 10° S 12:23:14 76° W 12:27:35 10° N
BREEZE-M DEB (TANK) 4.0 12:20:46 13° SW 12:24:59 71° SE 12:41:05 10° NE
Abrixas rocket 1.3 12:25:08 35° W 12:25:34 42° SW 12:27:33 10° SSE
Helios 1B 4.5 12:24:49 10° S 12:29:08 77° WSW 12:33:28 10° NNW
Cosmos 1842 3.2 12:28:30 10° SSW 12:32:22 66° W 12:36:14 10° N
Meteor 2-20 Rocket 4.4 12:27:39 10° S 12:33:45 86° W 12:39:55 10° N
ATLAS 5 CENTAUR R/B 2.7 12:28:36 10° NW 12:34:30 51° WSW 12:41:14 10° S
Cosmos 2151 Rocket 3.7 12:32:20 10° NNW 12:36:47 59° W 12:41:13 10° S
DELTA 2 R/B (1) 4.2 12:32:55 10° W 12:38:18 49° N 12:43:43 10° ENE
Okean 2 Rocket 3.6 12:38:41 10° NNW 12:42:44 36° W 12:46:45 10° SSW
ATLAS 2AS CENTAUR R/B 4.0 12:36:45 10° NNW 12:43:39 46° NE 12:50:02 10° SE
Landsat 5 3.6 12:43:16 10° S 12:47:35 64° W 12:52:02 10° NNW
Meteor 1-31 Rocket 2.8 12:44:01 10° NNE 12:47:50 83° E 12:51:40 10° S
Milstar 3 4.1 12:39:34 10° W 12:48:01 67° S 13:04:31 10° E
CZ-4B R/B 4.0 12:51:08 10° N 12:55:19 78° WNW 12:59:40 10° SSW
Cosmos 1484 Rocket 3.8 12:52:55 10° NNW 12:56:23 29° WNW 12:59:51 10° SW
CZ-4C R/B 3.4 12:54:49 10° S 12:58:15 43° W 13:01:39 10° NNW
Cosmos 2150 Rocket 4.3 12:55:45 10° SSW 13:01:04 54° WNW 13:06:25 10° N
